Location: Spaichingen
(48.0400°N, 8.4300°E)
Time: 10:31:34
(UTC+01:00)

ISS - Pass Details

Date: 27 January 2019
Orbit: 403 x 411 km, 51.6° (Epoch: 21 February)

Event Time Altitude Azimuth Distance (km) Brightness Sun altitude
Rises 19:55:42 0° 271° (W) 2,334 1.4 -26.3°
Reaches altitude 10° 19:57:51 10° 278° (W) 1,476 0.0 -26.6°
Enters shadow 19:59:18 23° 290° (WNW) 939 -1.3 -26.9°
